User: anonymous   Login
Location: Darlington Observatory
(36.4817°N, 105.8156°W)
Time: 21:05:39
(UTC-06:00)
Language:

NOSS 3-3 (A) - Orbit

View from above orbital plane
View from above orbital plane
View from above satellite
View from above satellite

Ground track
Ground track

The orbit data is extracted from the following two-line orbital elements,

1 28537U 05004A   15220.84322912 0.00000000  00000-0  00000-0 0    08
2 28537  63.4294 116.8655 0202000 357.8159   2.1841 13.40685585    00
Epoch (UTC): 08 August 2015 20:14:14
Eccentricity: 0.0202000
inclination: 63.4294°
perigee height: 955 km
apogee height: 1258 km
right ascension of ascending node: 116.8655°
argument of perigee: 357.8159°
revolutions per day: 13.40685585
mean anomaly at epoch: 2.1841°
orbit number at epoch: 0

The dashed part of the orbit path shows where the satellite is in the earth's shadow,  

DLR